Погода в Габишеве

Россия / Республика Татарстан     55°36′41″N   49°08′31″E
темп.,
°C
ветер,
м/с
пор.,
м/с
влажн.,
%
обл.,
%
осадки,
мм/ч
давл.,
гПа
погр.,
м
18 мая, вт
вт1800:00+18с3678100 1.3 1017129
03:00+17всв388572 1.3 1017177
06:00+20в387647 0.0 1017288
09:00+24всв235786 0.0 1017512
12:00+28в334420 0.0 10171130
15:00+28в444311 0.0 10171329
18:00+25всв47593 0.0 1016235
21:00+20в310705 0.0 1017199
19 мая, ср
ср1900:00+18в4126514 0.0 1017245
03:00+15вюв411725 0.0 1018246
06:00+17в511735 0.0 1018330
09:00+21вюв79591 0.0 1018669
12:00+24вюв78475 0.0 10181130
15:00+25вюв68440 0.0 10171212
18:00+23в49610 0.0 1016265
21:00+18вюв49740 0.0 1017145
20 мая, чт
чт2000:00+16вюв411770 0.0 1017209
03:00+14вюв411792 0.0 1017192
06:00+17юв613694 0.0 1017375
09:00+21юв71156100 0.0 1017603
12:00+23юв794550 0.0 10161546
15:00+23юв7941100 0.0 10151565
18:00+21вюв611530 0.0 1014403
21:00+16юв413644 0.0 1014241
21 мая, пт
пт2100:00+14юв39738 0.0 1013154
03:00+14ююв41171100 0.0 1013293
06:00+13юв489561 1.8 1013309
09:00+19ю686915 1.8 10131033
12:00+22ююз795339 0.7 10131893
15:00+21юз795767 1.5 10141582
18:00+19юз59630 0.3 1015540
21:00+15юз37755 0.3 1017122
22 мая, сб
сб2200:00+13зюз378759 0.0 1018120
03:00+12зюз3689100 0.0 1020114
06:00+15зюз357982 0.0 1021311
09:00+18юз3563100 0.0 1021759
12:00+17ююв1275100 0.5 1021286
15:00+23ююв4855100 0.5 10181110
18:00+20ю41265100 0.0 1017411
21:00+19зюз51264100 0.0 1017406